Waarnemingen

Advertentie
Mijn weer
Cap Corse, Frankrijk (7785): temperatuur & dauwpunt: 18.04.2018 10:00:00 - 24.04.2018 10:00:00 (CEST)Cap Corse, Frankrijk (7785): windsnelheid & windstoten: 18.04.2018 10:00:00 - 24.04.2018 10:00:00 (CEST)Cap Corse, Frankrijk (7785): windrichting: 18.04.2018 10:00:00 - 24.04.2018 10:00:00 (CEST)Cap Corse, Frankrijk (7785): luchtdruk: 18.04.2018 10:00:00 - 24.04.2018 10:00:00 (CEST)Cap Corse, Frankrijk (7785): zicht: 18.04.2018 10:00:00 - 24.04.2018 10:00:00 (CEST)Cap Corse, Frankrijk (7785): neerslag: 18.04.2018 10:00:00 - 24.04.2018 10:00:00 (CEST)
Datum & Tijd tt [°C] td [°C] ff [km/u] ff [kn] fx [km/u] fx [kn] dd ppp [hPa] vv [km] rr [mm]
24.04.2018 10:00:00 19,6 11,9 9 5 13 7 W 1019,5 - 0,0
24.04.2018 09:00:00 19,4 9,8 6 3 9 5 W 1019,2 - 0,0
24.04.2018 08:00:00 18,2 9,5 3 1 8 4 WNW 1018,7 18 0,0
24.04.2018 07:00:00 15,5 7,5 6 3 13 7 W 1018,1 - 0,0
24.04.2018 06:00:00 16,0 7,2 9 5 13 7 ZW 1017,8 - 0,0
24.04.2018 05:00:00 15,9 6,6 8 5 13 7 OZO 1018,0 18 0,0
24.04.2018 04:00:00 16,9 6,4 10 5 20 11 ZW 1018,2 - 0,0
24.04.2018 03:00:00 16,5 6,0 10 5 16 9 WZW 1018,3 - 0,0
24.04.2018 02:00:00 16,9 4,6 11 6 34 18 ZW 1018,1 - 0,0
24.04.2018 01:00:00 17,6 5,8 18 10 30 16 ZW 1018,8 - 0,0
24.04.2018 00:00:00 18,3 4,1 20 11 37 20 ZW 1018,9 - 0,0
23.04.2018 23:00:00 18,4 3,8 23 13 43 23 ZW 1018,9 - 0,0
23.04.2018 22:00:00 18,0 5,6 17 9 38 21 WZW 1018,8 - 0,0
23.04.2018 21:00:00 17,8 6,6 26 14 47 26 WZW 1018,4 - 0,0
23.04.2018 20:00:00 18,4 6,9 23 13 45 24 WZW 1018,4 - 0,0
23.04.2018 19:00:00 19,2 8,8 25 13 40 22 WZW 1018,6 - 0,0
23.04.2018 18:00:00 19,6 8,6 19 11 38 20 WZW 1018,7 - 0,0
23.04.2018 17:00:00 21,0 7,6 23 12 44 24 WZW 1018,7 18 0,0
23.04.2018 16:00:00 21,7 8,2 21 11 40 22 WZW 1019,0 - 0,0
23.04.2018 15:00:00 22,2 7,6 23 13 41 22 W 1019,4 - 0,0
23.04.2018 14:00:00 22,7 6,9 18 10 40 21 W 1019,6 18 0,0
23.04.2018 13:00:00 22,6 6,4 14 7 46 25 W 1019,9 - 0,0
23.04.2018 12:00:00 21,5 7,0 28 15 45 25 WZW 1020,1 - 0,0
23.04.2018 11:00:00 22,0 7,0 16 9 43 23 WZW 1020,1 - 0,0
23.04.2018 10:00:00 21,3 7,5 14 8 40 21 WZW 1019,8 - 0,0
23.04.2018 09:00:00 20,7 9,0 4 2 23 12 NW 1019,5 - 0,0
23.04.2018 08:00:00 20,5 6,8 12 7 27 15 ZW 1019,3 18 0,0
23.04.2018 07:00:00 18,7 5,9 12 6 48 26 ZW 1018,8 - 0,0
23.04.2018 06:00:00 18,7 5,9 29 16 54 29 ZW 1018,5 - 0,0
23.04.2018 05:00:00 18,6 5,8 25 13 43 23 ZW 1018,4 15 0,0
23.04.2018 04:00:00 18,4 6,2 29 16 51 27 ZW 1018,7 - 0,0
23.04.2018 03:00:00 18,9 6,0 28 15 57 31 ZW 1018,4 - 0,0
23.04.2018 02:00:00 18,1 6,9 31 17 59 32 ZW 1018,9 - 0,0
23.04.2018 01:00:00 18,3 6,8 37 20 65 35 ZW 1019,1 - 0,0
23.04.2018 00:00:00 18,0 7,7 37 20 59 32 ZW 1019,1 - 0,0
22.04.2018 23:00:00 18,1 8,6 34 18 64 35 ZW 1018,9 - 0,0
22.04.2018 22:00:00 18,7 6,8 32 17 53 29 ZW 1018,6 - 0,0
22.04.2018 21:00:00 19,5 6,2 31 17 63 34 ZW 1018,3 - 0,0
22.04.2018 20:00:00 19,5 6,9 37 20 60 32 WZW 1017,4 18 0,0
22.04.2018 19:00:00 19,9 8,9 26 14 50 27 WZW 1017,4 - 0,0
22.04.2018 18:00:00 21,0 10,5 24 13 41 22 W 1017,7 - 0,0
22.04.2018 17:00:00 21,8 10,3 20 11 28 15 W 1017,8 20 0,0
22.04.2018 16:00:00 24,2 5,5 16 9 26 14 W 1018,0 - 0,0
22.04.2018 15:00:00 21,8 10,6 4 2 14 8 W 1018,6 - 0,0
22.04.2018 14:00:00 22,3 10,4 5 3 40 21 NNO 1018,8 20 0,0
22.04.2018 13:00:00 23,7 6,0 24 13 48 26 ZW 1018,9 - 0,0
22.04.2018 12:00:00 22,7 7,3 25 14 59 32 ZW 1018,9 - 0,0
22.04.2018 11:00:00 20,2 10,0 24 13 56 31 WZW 1019,1 20 0,0
22.04.2018 10:00:00 19,7 9,6 23 12 47 26 WZW 1018,8 - 0,0
22.04.2018 09:00:00 20,2 9,1 18 10 33 18 W 1018,3 - 0,0
22.04.2018 08:00:00 18,6 8,5 22 12 34 18 WZW 1018,2 20 0,0
22.04.2018 07:00:00 16,7 7,6 6 3 10 5 WZW 1017,9 - 0,0
22.04.2018 06:00:00 16,5 6,3 0 0 10 6 N 1017,8 - 0,0
22.04.2018 05:00:00 16,7 6,2 11 6 14 8 OZO 1018,1 15 0,0
22.04.2018 04:00:00 17,6 6,5 3 1 34 18 NNW 1018,3 - 0,0
22.04.2018 03:00:00 19,7 7,1 19 10 29 16 ZZW 1018,1 - 0,0
22.04.2018 02:00:00 19,8 5,4 9 5 36 19 ZZW 1018,5 - 0,0
22.04.2018 01:00:00 19,8 7,2 20 11 40 22 ZZW 1018,7 - 0,0
22.04.2018 00:00:00 19,5 7,2 27 14 48 26 ZZW 1018,7 - 0,0
21.04.2018 23:00:00 19,3 8,6 29 16 46 25 ZZW 1018,7 - 0,0
21.04.2018 22:00:00 19,0 9,2 31 17 46 25 ZZW 1018,6 - 0,0
21.04.2018 21:00:00 19,0 8,9 20 11 38 20 ZW 1018,3 - 0,0
21.04.2018 20:00:00 21,3 8,2 15 8 40 22 WZW 1017,6 20 0,0
21.04.2018 19:00:00 19,3 13,5 30 16 46 25 W 1017,5 - 0,0
21.04.2018 18:00:00 22,5 12,7 11 6 18 10 WZW 1017,7 - 0,0
21.04.2018 17:00:00 24,1 5,4 3 1 13 7 ONO 1018,1 20 0,0
21.04.2018 16:00:00 23,7 6,5 9 5 15 8 NO 1018,5 - 0,0
21.04.2018 15:00:00 23,1 10,2 12 6 15 8 ONO 1018,9 - 0,0
21.04.2018 14:00:00 21,5 9,7 9 5 16 9 O 1019,4 - 0,0
21.04.2018 13:00:00 21,3 10,1 8 4 13 7 NO 1019,7 - 0,0
21.04.2018 12:00:00 21,6 8,8 4 2 14 7 ONO 1020,1 - 0,0
21.04.2018 11:00:00 20,8 9,7 4 2 13 7 NNW 1020,4 20 0,0
21.04.2018 10:00:00 20,7 8,0 7 4 14 7 W 1020,1 - 0,0
21.04.2018 09:00:00 22,9 8,6 2 1 7 4 NNO 1019,9 - 0,0
21.04.2018 08:00:00 22,3 8,0 3 2 19 11 NO 1019,9 20 0,0
21.04.2018 07:00:00 16,2 7,7 16 9 25 13 WZW 1019,7 - 0,0
21.04.2018 06:00:00 17,7 5,9 14 8 18 10 WZW 1019,4 - 0,0
21.04.2018 05:00:00 19,1 5,2 3 1 29 15 ZO 1019,5 12 0,0
21.04.2018 04:00:00 19,1 6,6 20 11 30 16 Z 1019,6 - 0,0
21.04.2018 03:00:00 19,8 5,8 14 8 28 15 ZZO 1020,1 - 0,0
21.04.2018 02:00:00 19,5 6,9 22 12 42 23 Z 1020,3 - 0,0
21.04.2018 01:00:00 20,0 7,0 6 4 42 23 W 1020,5 - 0,0
21.04.2018 00:00:00 20,6 5,8 8 4 13 7 O 1020,7 - 0,0
20.04.2018 23:00:00 20,8 6,0 4 2 6 4 O 1020,4 - 0,0
20.04.2018 22:00:00 21,3 5,2 3 2 8 4 ONO 1020,5 - 0,0
20.04.2018 21:00:00 21,7 4,7 4 2 13 7 O 1020,4 - 0,0
20.04.2018 20:00:00 22,0 4,1 5 3 14 8 NO 1020,0 20 0,0
20.04.2018 19:00:00 23,6 4,5 7 4 16 9 N 1019,9 - 0,0
20.04.2018 18:00:00 23,9 3,2 3 2 14 8 O 1020,3 - 0,0
20.04.2018 17:00:00 23,3 5,2 3 2 13 7 N 1020,8 20 0,0
20.04.2018 16:00:00 23,9 4,8 5 3 13 7 N 1021,3 - 0,0
20.04.2018 15:00:00 22,9 5,3 5 3 13 7 O 1022,2 - 0,0
20.04.2018 14:00:00 20,9 11,2 9 5 17 9 O 1022,7 20 0,0
20.04.2018 13:00:00 21,9 10,7 14 8 21 12 O 1023,2 - 0,0
20.04.2018 12:00:00 21,0 11,6 16 8 21 12 O 1023,6 - 0,0
20.04.2018 11:00:00 19,7 11,5 14 7 23 13 ONO 1023,5 - 0,0
20.04.2018 10:00:00 19,9 10,3 18 10 32 18 O 1023,2 - 0,0
20.04.2018 09:00:00 21,1 8,0 21 12 35 19 O 1023,1 - 0,0
20.04.2018 08:00:00 20,1 7,5 21 12 32 17 O 1022,9 20 0,0
20.04.2018 07:00:00 18,0 8,8 14 7 27 14 O 1023,0 - 0,0
20.04.2018 06:00:00 16,9 7,5 14 8 21 11 O 1023,1 - 0,0
20.04.2018 05:00:00 17,8 7,2 14 8 27 15 OZO 1023,1 - 0,0
20.04.2018 04:00:00 18,2 7,0 19 10 32 17 OZO 1023,3 - 0,0
20.04.2018 03:00:00 18,6 6,1 17 9 29 15 O 1023,4 - 0,0
20.04.2018 02:00:00 18,3 5,2 16 9 29 16 O 1023,8 - 0,0
20.04.2018 01:00:00 18,6 7,1 15 8 22 12 ONO 1024,2 - 0,0
20.04.2018 00:00:00 19,5 6,2 13 7 26 14 O 1024,4 - 0,0
19.04.2018 23:00:00 19,0 7,1 16 8 23 12 OZO 1024,6 - 0,0
19.04.2018 22:00:00 19,2 7,3 14 7 21 11 OZO 1024,6 - 0,0
19.04.2018 21:00:00 16,7 8,6 16 8 22 12 O 1024,6 - 0,0
19.04.2018 20:00:00 17,5 10,1 9 5 14 8 ZO 1024,4 - 0,0
19.04.2018 19:00:00 18,6 11,2 9 5 17 9 O 1024,3 - 0,0
19.04.2018 18:00:00 19,5 9,7 14 7 29 16 ONO 1024,2 - 0,0
19.04.2018 17:00:00 22,2 7,6 21 11 32 17 O 1024,1 18 0,0
19.04.2018 16:00:00 21,5 8,4 21 11 36 20 O 1024,8 - 0,0
19.04.2018 15:00:00 21,5 8,0 23 13 34 18 O 1025,3 - 0,0
19.04.2018 14:00:00 21,8 7,2 25 14 39 21 O 1025,6 18 0,0
19.04.2018 13:00:00 21,6 6,7 29 15 43 23 O 1025,9 - 0,0
19.04.2018 12:00:00 21,3 6,8 28 15 43 23 O 1026,2 - 0,0
19.04.2018 11:00:00 20,6 7,6 30 16 42 23 O 1026,2 - 0,0
19.04.2018 10:00:00 20,5 7,5 22 12 55 30 O 1026,0 - 0,0
19.04.2018 09:00:00 19,9 6,6 27 15 48 26 O 1026,1 - 0,0
19.04.2018 08:00:00 18,4 6,6 24 13 53 28 O 1025,8 18 0,0
19.04.2018 07:00:00 17,2 6,7 31 17 55 30 O 1025,8 - 0,0
19.04.2018 06:00:00 17,1 7,4 36 20 58 31 O 1025,7 - 0,0
19.04.2018 05:00:00 17,5 6,7 33 18 54 29 O 1025,9 18 0,0
19.04.2018 04:00:00 17,9 5,5 29 16 50 27 O 1026,3 - 0,0
19.04.2018 03:00:00 17,3 6,5 25 13 45 25 O 1026,5 - 0,0
19.04.2018 02:00:00 17,2 6,7 23 12 45 25 O 1026,8 - 0,0
19.04.2018 01:00:00 16,8 8,5 18 10 28 15 OZO 1026,9 - 0,0
19.04.2018 00:00:00 17,7 7,7 16 9 31 17 O 1026,7 - 0,0
18.04.2018 23:00:00 18,0 7,4 17 9 30 16 OZO 1026,7 - 0,0
18.04.2018 22:00:00 18,9 7,0 19 10 31 17 O 1026,4 - 0,0
18.04.2018 21:00:00 18,0 7,7 13 7 18 10 O 1026,0 - 0,0
18.04.2018 20:00:00 17,7 8,8 8 5 20 11 ONO 1025,5 20 0,0
18.04.2018 19:00:00 20,6 7,9 11 6 22 12 OZO 1025,3 - 0,0
18.04.2018 18:00:00 20,4 9,3 10 6 16 9 O 1025,5 - 0,0
18.04.2018 17:00:00 20,7 9,3 11 6 17 9 O 1025,6 20 0,0
18.04.2018 16:00:00 20,8 10,0 9 5 19 10 ONO 1025,7 - 0,0
18.04.2018 15:00:00 19,9 10,6 6 3 17 9 O 1026,1 - 0,0
18.04.2018 14:00:00 19,7 11,2 12 6 47 26 ONO 1026,2 20 0,0
18.04.2018 13:00:00 21,7 8,6 35 19 53 29 O 1026,0 - 0,0
18.04.2018 12:00:00 21,1 8,7 29 16 44 24 O 1026,3 - 0,0
18.04.2018 11:00:00 20,8 9,1 27 15 44 24 O 1026,3 20 0,0
18.04.2018 10:00:00 20,6 9,8 22 12 45 24 O 1026,0 - 0,0

tt = temperatuur
td = dauwpunt
ff = windsnelheid
fx = windstoten
dd = windrichting
ppp = luchtdruk
vv = zicht
rr = neerslag

Weerstations in de omgeving